KLM995 EHAM-EGLC

Flight info

Callsign KLM995
Flight time 0h 43m
Altitude 20000
Route IDRID L980 XAMAN
Aircraft E190/M-SDE3GILORVW/S

Departure

Time 2026-05-07 19:33
Airport Amsterdam Airport Schiphol (EHAM)

Arrival

Time 2026-05-07 20:16
Airport London City Airport (EGLC)
Time Latitude Longitude Altitude Speed Heading
2026-05-07 19:01 52.30338 4.76215 -1 ft 0 kts 58°
2026-05-07 19:21 52.30338 4.76216 -1 ft 0 kts 58°
2026-05-07 19:22 52.30333 4.76201 -1 ft 2 kts 58°
2026-05-07 19:22 52.30325 4.76180 -1 ft 2 kts 58°
2026-05-07 19:22 52.30317 4.76160 -1 ft 1 kts 73°
2026-05-07 19:23 52.30319 4.76140 -1 ft 1 kts 133°
2026-05-07 19:23 52.30330 4.76128 -1 ft 0 kts 150°
2026-05-07 19:23 52.30332 4.76127 -1 ft 0 kts 150°
2026-05-07 19:25 52.30330 4.76128 -1 ft 1 kts 150°
2026-05-07 19:25 52.30318 4.76141 -1 ft 3 kts 149°
2026-05-07 19:25 52.30293 4.76166 -1 ft 5 kts 147°
2026-05-07 19:26 52.30250 4.76210 -1 ft 8 kts 147°
2026-05-07 19:26 52.30206 4.76257 -1 ft 5 kts 148°
2026-05-07 19:26 52.30171 4.76284 -1 ft 6 kts 157°
2026-05-07 19:26 52.30121 4.76293 -1 ft 8 kts 207°
2026-05-07 19:27 52.30074 4.76201 -1 ft 12 kts 238°
2026-05-07 19:27 52.30024 4.76068 -1 ft 14 kts 238°
2026-05-07 19:27 52.29965 4.75917 -1 ft 16 kts 237°
2026-05-07 19:27 52.29897 4.75744 -1 ft 19 kts 238°
2026-05-07 19:28 52.29820 4.75538 -1 ft 22 kts 239°
2026-05-07 19:28 52.29779 4.75351 -1 ft 16 kts 281°
2026-05-07 19:28 52.29842 4.75198 -1 ft 16 kts 308°
2026-05-07 19:28 52.29917 4.75054 -1 ft 16 kts 311°
2026-05-07 19:29 52.29997 4.74906 -1 ft 17 kts 311°
2026-05-07 19:29 52.30077 4.74757 -1 ft 17 kts 311°
2026-05-07 19:29 52.30160 4.74603 -1 ft 18 kts 312°
2026-05-07 19:29 52.30245 4.74447 -1 ft 15 kts 311°
2026-05-07 19:30 52.30300 4.74337 -1 ft 9 kts 309°
2026-05-07 19:30 52.30339 4.74243 -1 ft 10 kts 285°
2026-05-07 19:30 52.30340 4.74127 -1 ft 10 kts 258°
2026-05-07 19:30 52.30302 4.74021 -1 ft 11 kts 224°
2026-05-07 19:31 52.30240 4.73940 -1 ft 11 kts 218°
2026-05-07 19:31 52.30189 4.73838 -1 ft 12 kts 260°
2026-05-07 19:31 52.30234 4.73740 -1 ft 12 kts 353°
2026-05-07 19:31 52.30273 4.73740 -1 ft 0 kts
2026-05-07 19:32 52.30278 4.73740 -1 ft 4 kts
2026-05-07 19:32 52.30449 4.73756 -1 ft 59 kts
2026-05-07 19:32 52.31100 4.73815 -1 ft 127 kts
2026-05-07 19:32 52.32153 4.73910 147 ft 164 kts
2026-05-07 19:33 52.33273 4.74051 825 ft 168 kts
2026-05-07 19:33 52.34442 4.73947 1496 ft 165 kts 347°
2026-05-07 19:33 52.35456 4.73054 1899 ft 181 kts 328°
2026-05-07 19:33 52.36624 4.72056 2533 ft 197 kts 343°
2026-05-07 19:34 52.37971 4.71309 3178 ft 219 kts 341°
2026-05-07 19:34 52.39250 4.69600 3487 ft 260 kts 299°
2026-05-07 19:34 52.39612 4.66705 4397 ft 270 kts 261°
2026-05-07 19:34 52.38878 4.63959 5497 ft 270 kts 232°
2026-05-07 19:35 52.37924 4.61353 6597 ft 273 kts 243°
2026-05-07 19:35 52.37056 4.58590 7659 ft 276 kts 242°
2026-05-07 19:35 52.36163 4.55856 8629 ft 279 kts 242°
2026-05-07 19:35 52.35236 4.53064 9619 ft 282 kts 242°
2026-05-07 19:36 52.34299 4.50268 10508 ft 288 kts 242°
2026-05-07 19:36 52.33310 4.47331 11100 ft 304 kts 242°
2026-05-07 19:36 52.32251 4.44199 11676 ft 321 kts 242°
2026-05-07 19:36 52.31160 4.40975 12228 ft 335 kts 242°
2026-05-07 19:37 52.30018 4.37608 12978 ft 344 kts 241°
2026-05-07 19:37 52.28854 4.34183 13876 ft 347 kts 240°
2026-05-07 19:37 52.27684 4.30744 14720 ft 351 kts 240°
2026-05-07 19:37 52.26496 4.27256 15560 ft 355 kts 240°
2026-05-07 19:38 52.25303 4.23759 16358 ft 359 kts 240°
2026-05-07 19:38 52.24076 4.20167 17178 ft 363 kts 240°
2026-05-07 19:38 52.22850 4.16585 17959 ft 367 kts 240°
2026-05-07 19:38 52.21619 4.12989 18768 ft 370 kts 240°
2026-05-07 19:39 52.20357 4.09314 19565 ft 373 kts 240°
2026-05-07 19:39 52.19105 4.05671 20032 ft 374 kts 240°
2026-05-07 19:39 52.17833 4.01973 20067 ft 375 kts 241°
2026-05-07 19:39 52.16552 3.98256 20079 ft 375 kts 241°
2026-05-07 19:40 52.15277 3.94560 20077 ft 376 kts 241°
2026-05-07 19:40 52.13987 3.90830 20076 ft 376 kts 241°
2026-05-07 19:40 52.12712 3.87144 20079 ft 377 kts 240°
2026-05-07 19:40 52.11863 3.84695 20072 ft 377 kts 240°
2026-05-07 19:41 52.09872 3.78961 20073 ft 376 kts 241°
2026-05-07 19:41 52.08577 3.75237 20073 ft 376 kts 241°
2026-05-07 19:41 52.07230 3.71615 20072 ft 376 kts 237°
2026-05-07 19:41 52.05788 3.68038 20066 ft 377 kts 237°
2026-05-07 19:42 52.04349 3.64491 20074 ft 376 kts 237°
2026-05-07 19:42 52.02902 3.60933 20065 ft 377 kts 237°
2026-05-07 19:42 52.01478 3.57443 20073 ft 377 kts 237°
2026-05-07 19:42 52.00017 3.53868 20075 ft 376 kts 237°
2026-05-07 19:43 51.98578 3.50349 20076 ft 376 kts 237°
2026-05-07 19:43 51.97138 3.46833 20074 ft 376 kts 237°
2026-05-07 19:43 51.95664 3.43240 20076 ft 376 kts 237°
2026-05-07 19:43 51.94216 3.39715 20078 ft 376 kts 237°
2026-05-07 19:44 51.92763 3.36184 20075 ft 376 kts 237°
2026-05-07 19:44 51.91328 3.32698 20081 ft 376 kts 236°
2026-05-07 19:44 51.89877 3.29180 20076 ft 376 kts 236°
2026-05-07 19:44 51.88422 3.25658 20078 ft 376 kts 236°
2026-05-07 19:45 51.86968 3.22144 20081 ft 376 kts 236°
2026-05-07 19:45 51.85553 3.18649 20069 ft 376 kts 242°
2026-05-07 19:45 51.84786 3.14634 20092 ft 376 kts 262°
2026-05-07 19:45 51.84491 3.10429 20081 ft 377 kts 263°
2026-05-07 19:46 51.84215 3.06232 20074 ft 376 kts 263°
2026-05-07 19:46 51.83941 3.02047 20078 ft 376 kts 263°
2026-05-07 19:46 51.83666 2.97835 20074 ft 376 kts 263°
2026-05-07 19:46 51.83389 2.93638 20068 ft 377 kts 263°
2026-05-07 19:47 51.83111 2.89429 20078 ft 376 kts 263°
2026-05-07 19:47 51.82831 2.85215 20071 ft 376 kts 263°
2026-05-07 19:47 51.82552 2.81025 20069 ft 375 kts 263°
2026-05-07 19:47 51.82272 2.76864 20071 ft 376 kts 263°
2026-05-07 19:48 51.81990 2.72691 20069 ft 375 kts 263°
2026-05-07 19:48 51.81703 2.68461 20062 ft 370 kts 263°
2026-05-07 19:48 51.81427 2.64423 20059 ft 363 kts 263°
2026-05-07 19:48 51.81147 2.60363 20063 ft 362 kts 263°
2026-05-07 19:49 51.80869 2.56344 20065 ft 363 kts 263°
2026-05-07 19:49 51.80584 2.52236 19858 ft 365 kts 263°
2026-05-07 19:49 51.80301 2.48193 19471 ft 362 kts 263°
2026-05-07 19:49 51.80021 2.44209 19078 ft 360 kts 263°
2026-05-07 19:50 51.79738 2.40191 18684 ft 357 kts 263°
2026-05-07 19:50 51.79456 2.36230 18295 ft 356 kts 263°
2026-05-07 19:50 51.79177 2.32310 17906 ft 354 kts 262°
2026-05-07 19:50 51.78896 2.28394 17519 ft 352 kts 262°
2026-05-07 19:51 51.78613 2.24460 17131 ft 351 kts 262°
2026-05-07 19:51 51.78358 2.20554 16748 ft 349 kts 264°
2026-05-07 19:51 51.78131 2.16667 16364 ft 347 kts 264°
2026-05-07 19:51 51.77907 2.12835 15988 ft 346 kts 264°
2026-05-07 19:52 51.77679 2.08973 15607 ft 344 kts 264°
2026-05-07 19:52 51.77455 2.05174 15231 ft 343 kts 263°
2026-05-07 19:52 51.77226 2.01340 14848 ft 342 kts 263°
2026-05-07 19:52 51.76998 1.97533 14471 ft 340 kts 263°
2026-05-07 19:53 51.76770 1.93736 14095 ft 339 kts 263°
2026-05-07 19:53 51.76544 1.90010 13733 ft 335 kts 263°
2026-05-07 19:53 51.76320 1.86329 13357 ft 324 kts 263°
2026-05-07 19:53 51.76104 1.82787 13008 ft 314 kts 263°
2026-05-07 19:54 51.75892 1.79350 12663 ft 304 kts 263°
2026-05-07 19:54 51.75684 1.75982 12332 ft 295 kts 263°
2026-05-07 19:54 51.75482 1.72723 12011 ft 289 kts 263°
2026-05-07 19:54 51.75282 1.69511 11701 ft 289 kts 263°
2026-05-07 19:55 51.74647 1.66508 11705 ft 286 kts 234°
2026-05-07 19:55 51.73446 1.63918 11754 ft 289 kts 234°
2026-05-07 19:55 51.72351 1.61235 11761 ft 291 kts 237°
2026-05-07 19:55 51.71299 1.58451 11773 ft 291 kts 239°
2026-05-07 19:56 51.70278 1.55650 11769 ft 291 kts 239°
2026-05-07 19:56 51.69267 1.52833 11766 ft 291 kts 239°
2026-05-07 19:56 51.68253 1.49991 11766 ft 291 kts 240°
2026-05-07 19:56 51.67247 1.47162 11763 ft 290 kts 240°
2026-05-07 19:57 51.66253 1.44364 11366 ft 287 kts 240°
2026-05-07 19:57 51.65265 1.41588 10827 ft 286 kts 240°
2026-05-07 19:57 51.64281 1.38826 10319 ft 285 kts 240°
2026-05-07 19:57 51.63311 1.36101 9824 ft 283 kts 240°
2026-05-07 19:58 51.62332 1.33357 9347 ft 281 kts 239°
2026-05-07 19:58 51.61357 1.30626 9096 ft 280 kts 239°
2026-05-07 19:58 51.60383 1.27902 9070 ft 279 kts 239°
2026-05-07 19:58 51.59415 1.25197 9067 ft 279 kts 239°
2026-05-07 19:59 51.58454 1.22514 9064 ft 279 kts 239°
2026-05-07 19:59 51.57484 1.19808 9042 ft 280 kts 239°
2026-05-07 19:59 51.56507 1.17087 8822 ft 281 kts 239°
2026-05-07 19:59 51.55529 1.14364 8521 ft 279 kts 239°
2026-05-07 20:00 51.54570 1.11701 8217 ft 277 kts 239°
2026-05-07 20:00 51.53616 1.09051 7917 ft 275 kts 239°
2026-05-07 20:00 51.52651 1.06375 7615 ft 273 kts 239°
2026-05-07 20:00 51.51710 1.03767 7325 ft 272 kts 239°
2026-05-07 20:01 51.50767 1.01157 7013 ft 271 kts 239°
2026-05-07 20:01 51.49814 0.98521 6710 ft 269 kts 239°
2026-05-07 20:01 51.48880 0.95940 6420 ft 269 kts 239°
2026-05-07 20:01 51.47947 0.93347 6121 ft 268 kts 242°
2026-05-07 20:02 51.47582 0.90440 6037 ft 268 kts 271°
2026-05-07 20:02 51.47670 0.87466 6010 ft 270 kts 272°
2026-05-07 20:02 51.47776 0.84427 5989 ft 272 kts 273°
2026-05-07 20:02 51.47887 0.81424 5984 ft 271 kts 273°
2026-05-07 20:03 51.47998 0.78426 5996 ft 271 kts 273°
2026-05-07 20:03 51.48110 0.75430 5992 ft 271 kts 273°
2026-05-07 20:03 51.48224 0.72365 5997 ft 271 kts 273°
2026-05-07 20:03 51.48316 0.69894 5997 ft 271 kts 273°
2026-05-07 20:04 51.48426 0.66896 5992 ft 271 kts 273°
2026-05-07 20:04 51.48537 0.63880 5996 ft 271 kts 272°
2026-05-07 20:04 51.48646 0.60875 5996 ft 271 kts 273°
2026-05-07 20:04 51.48756 0.57843 6005 ft 271 kts 272°
2026-05-07 20:05 51.48865 0.54807 5470 ft 282 kts 272°
2026-05-07 20:05 51.48978 0.51632 4617 ft 292 kts 273°
2026-05-07 20:05 51.49080 0.48426 4088 ft 280 kts 268°
2026-05-07 20:05 51.48571 0.45614 3903 ft 251 kts 240°
2026-05-07 20:06 51.47773 0.43290 3921 ft 228 kts 239°
2026-05-07 20:06 51.47008 0.41132 3890 ft 220 kts 239°
2026-05-07 20:06 51.46246 0.39017 3865 ft 221 kts 238°
2026-05-07 20:06 51.45460 0.36856 3712 ft 225 kts 238°
2026-05-07 20:07 51.44674 0.34707 3483 ft 223 kts 238°
2026-05-07 20:07 51.43885 0.32554 3237 ft 222 kts 238°
2026-05-07 20:07 51.43184 0.30360 3018 ft 222 kts 258°
2026-05-07 20:07 51.43145 0.27960 2998 ft 210 kts 271°
2026-05-07 20:08 51.43210 0.25699 2967 ft 198 kts 271°
2026-05-07 20:08 51.43275 0.23500 2992 ft 200 kts 271°
2026-05-07 20:08 51.43344 0.21298 2997 ft 199 kts 271°
2026-05-07 20:08 51.43415 0.19073 2996 ft 201 kts 271°
2026-05-07 20:09 51.43486 0.16861 2995 ft 200 kts 271°
2026-05-07 20:09 51.43559 0.14610 2994 ft 200 kts 271°
2026-05-07 20:09 51.43630 0.12413 3014 ft 196 kts 271°
2026-05-07 20:10 51.43769 0.08082 2995 ft 193 kts 271°
2026-05-07 20:10 51.43838 0.05926 2810 ft 201 kts 271°
2026-05-07 20:10 51.43910 0.03646 2261 ft 211 kts 271°
2026-05-07 20:10 51.43984 0.01311 2069 ft 202 kts 271°
2026-05-07 20:11 51.44053 -0.00868 1977 ft 190 kts 271°
2026-05-07 20:11 51.44118 -0.02964 1992 ft 189 kts 271°
2026-05-07 20:11 51.44181 -0.04982 1978 ft 174 kts 271°
2026-05-07 20:11 51.44240 -0.06911 1980 ft 171 kts 270°
2026-05-07 20:12 51.44329 -0.08794 1984 ft 173 kts 284°
2026-05-07 20:12 51.45004 -0.10349 2007 ft 175 kts 329°
2026-05-07 20:12 51.46141 -0.10989 2018 ft 174 kts 348°
2026-05-07 20:12 51.47319 -0.11450 1995 ft 174 kts 348°
2026-05-07 20:13 51.48484 -0.11868 1986 ft 173 kts 359°
2026-05-07 20:13 51.49596 -0.11330 2002 ft 166 kts 45°
2026-05-07 20:13 51.50351 -0.09950 2013 ft 165 kts 54°
2026-05-07 20:13 51.50920 -0.08424 2015 ft 147 kts 84°
2026-05-07 20:14 51.50921 -0.06890 1987 ft 127 kts 96°
2026-05-07 20:14 51.50877 -0.05570 1956 ft 116 kts 96°
2026-05-07 20:14 51.50835 -0.04285 1993 ft 116 kts 95°
2026-05-07 20:14 51.50789 -0.02968 1836 ft 122 kts 96°
2026-05-07 20:15 51.50726 -0.01596 1407 ft 122 kts 97°
2026-05-07 20:15 51.50646 -0.00286 1064 ft 118 kts 96°
2026-05-07 20:15 51.50685 0.00995 800 ft 114 kts 93°
2026-05-07 20:15 51.50639 0.02283 555 ft 117 kts 95°
2026-05-07 20:16 51.50588 0.03587 244 ft 117 kts 94°
2026-05-07 20:16 51.50543 0.04889 21 ft 116 kts 92°
2026-05-07 20:16 51.50515 0.05741 20 ft 39 kts 93°
2026-05-07 20:16 51.50505 0.06010 20 ft 8 kts 105°
2026-05-07 20:17 51.50457 0.06026 20 ft 8 kts 220°
2026-05-07 20:17 51.50425 0.05947 20 ft 8 kts 265°
2026-05-07 20:17 51.50427 0.05842 20 ft 9 kts 272°
2026-05-07 20:17 51.50430 0.05742 20 ft 6 kts 274°
2026-05-07 20:18 51.50433 0.05665 20 ft 6 kts 273°
2026-05-07 20:18 51.50435 0.05622 20 ft 0 kts 272°
2026-05-07 20:18 51.50435 0.05605 20 ft 3 kts 272°
2026-05-07 20:18 51.50436 0.05542 21 ft 7 kts 272°
2026-05-07 20:19 51.50440 0.05441 23 ft 10 kts 273°
2026-05-07 20:19 51.50444 0.05301 23 ft 15 kts 273°
2026-05-07 20:19 51.50452 0.05116 20 ft 17 kts 277°
2026-05-07 20:19 51.50465 0.04911 19 ft 19 kts 273°
2026-05-07 20:20 51.50471 0.04677 17 ft 20 kts 272°
2026-05-07 20:20 51.50476 0.04550 17 ft 7 kts 272°
2026-05-07 20:20 51.50473 0.04479 17 ft 3 kts 233°
2026-05-07 20:20 51.50456 0.04464 17 ft 0 kts 196°
2026-05-07 20:21 51.50452 0.04459 17 ft 0 kts 233°
2026-05-07 20:21 51.50454 0.04449 17 ft 0 kts 314°